Weather in Priznachnoye

Russia / Belgorod Oblast     51°02′06″N   36°51′17″E
temp.,
°C
wind,
m/s
gust,
m/s
humid.,
%
clouds,
%
prec.,
mm/h
press.,
hPa
HPBL,
m
23 april, fri
fri2300:00+10s3876100 0.0 1019156
03:00+9s3875100 0.0 1019167
06:00+8s378547 0.1 1019142
09:00+12s59695 0.2 1018622
12:00+15ssw7954100 0.9 10171664
15:00+15ssw795497 2.3 10151815
18:00+13ssw61167100 1.9 1014619
21:00+10sw51282100 3.4 1013737
24 april, sat
sat2400:00+8w5892100 0.2 1012624
03:00+4nw71096100 0.9 1013658
06:00+4nw3787100 1.3 1013519
09:00+7w686817 1.5 10131141
12:00+9w9115395 0.8 10131970
15:00+7w101251100 1.0 10142134
18:00+5w9136096 0.3 10151634
21:00+3w612665 0.3 1017710
25 april, sun
sun2500:00+2w512705 0.0 1018499
03:00+1w512790 0.0 1019398
06:000wsw49845 0.0 1019249
09:00+6wsw69530 0.0 10191241
12:00+9sw674034 0.0 10192219
15:00+10ssw793773 0.0 10172271
18:00+9sw71255100 0.1 10151742
21:00+5w5792100 1.0 1017740
26 april, mon
mon2600:00+2w3593100 4.1 1017378
03:00+2wsw239294 5.2 1017228
06:00+1w23916 0.0 101777
09:00+5w3365100 0.0 1016796
12:00+7w3447100 0.0 10151965
15:00+8sw3443100 0.0 10141917
18:00+7w455481 0.5 10131315
21:00+3w357894 0.9 101496
27 april, tue
tue2700:00+2wsw36835 0.0 1014116
03:00+1wsw410885 0.0 1014266
06:00+1wnw589099 0.0 1014402
09:00+5w576419 0.0 1015954
12:00+7wsw5645100 0.3 10142047
15:00+8w5645100 0.5 10131869
18:00+7wsw4655100 0.8 10131315
21:00+3wsw35755 1.2 101587